Clyde Park, MT

12:02 AM MDT on September 01, 2016 (GMT -0600)
Mission

Weather History for KLVM - January, 2014

Change the Weather History Date:

Wednesday, January 22, 2014

  Actual Average Record
Temperature  
Mean Temperature 31 °F 27 °F  
Max Temperature 38 °F 37 °F 67 °F (1981)
Min Temperature 23 °F 18 °F -24 °F (1957)
Degree Days  
Heating Degree Days 34 38  
Month to date heating degree days 664 840  
Since 1 July heating degree days 3619 4005  
Cooling Degree Days 0 0  
Month to date cooling degree days 0  
Year to date cooling degree days 0  
Moisture  
Dew Point 24 °F    
Average Humidity 68    
Maximum Humidity 88    
Minimum Humidity 48    
Precipitation  
Precipitation 0.09 in 0.02 in 0.63 in (1989)
Month to date precipitation 0.19 0.35  
Year to date precipitation 0.19 0.35  
Sea Level Pressure  
Sea Level Pressure 30.24 in    
Wind  
Wind Speed 9 mph (East)    
Max Wind Speed 20 mph    
Max Gust Speed 23 mph    
Visibility 5 miles    
Events Fog , Snow    
T = Trace of Precipitation, MM = Missing Value Source: NWS Daily Summary

Daily Weather History Graph

Daily Weather History Graph

Search for Another Location

Airport or City:

Trip Planner

Search our weather history database for the weather conditions in past years. The results will help you decide how hot, cold, wet, or windy it might be!

Date:

Astronomy

Jan. 22, 2014 Rise Set
Actual Time 7:53 AM MST 5:13 PM MST
Civil Twilight 7:20 AM MST 5:46 PM MST
Nautical Twilight 6:44 AM MST 6:22 PM MST
Astronomical Twilight 6:09 AM MST 6:57 PM MST
Moon No Moon Rise 10:35 AM MST (1/22)
Length of Visible Light 10h 25m
Length of Day
9h 20m
Waning Gibbous, 65% of the Moon is Illuminated
Jan 22
Waning Gibbous
Jan 23
Last Quarter
Jan 30
New
Feb 6
First Quarter
Feb 14
Full

Hourly Weather History & Observations

Time (MST) Temp. Windchill Dew Point Humidity Pressure Visibility Wind Dir Wind Speed Gust Speed Precip Events Conditions
12:53 AM 36.0 °F 29.0 °F 19.9 °F 52% 30.20 in 10.0 mi East 9.2 mph - N/A   Overcast
1:53 AM 35.1 °F 31.0 °F 21.0 °F 57% 30.19 in 10.0 mi SE 4.6 mph - N/A   Overcast
2:53 AM 33.1 °F 30.0 °F 19.9 °F 59% 30.19 in 10.0 mi WNW 3.5 mph - N/A   Mostly Cloudy
3:53 AM 28.0 °F 21.7 °F 18.0 °F 66% 30.19 in 10.0 mi SE 5.8 mph - N/A   Clear
4:53 AM 30.0 °F - 19.9 °F 66% 30.19 in 10.0 mi Calm Calm - N/A   Clear
5:53 AM 28.9 °F 25.2 °F 19.0 °F 67% 30.22 in 10.0 mi SSW 3.5 mph - N/A   Clear
6:53 AM 28.9 °F 23.9 °F 19.9 °F 69% 30.21 in 10.0 mi SSE 4.6 mph - N/A   Partly Cloudy
7:53 AM 30.9 °F 22.8 °F 23.0 °F 72% 30.20 in 10.0 mi ESE 9.2 mph - N/A   Overcast
8:53 AM 30.9 °F 22.8 °F 24.1 °F 76% 30.22 in 10.0 mi East 9.2 mph - N/A   Overcast
9:48 AM 30.2 °F 21.9 °F 26.6 °F 86% 30.16 in 1.8 mi East 9.2 mph - 0.00 in Snow Light Snow
9:53 AM 30.9 °F 23.5 °F 26.1 °F 82% 30.23 in 1.8 mi East 8.1 mph - 0.00 in Snow Light Snow
10:19 AM 30.9 °F 26.2 °F 27.0 °F 85% 30.16 in 1.0 mi SE 4.6 mph - 0.00 in Snow Light Snow
10:26 AM 30.0 °F 25.2 °F 27.0 °F 88% 30.16 in 0.5 mi SE 4.6 mph - 0.00 in Fog , Snow Snow
10:34 AM 30.0 °F 25.2 °F 27.0 °F 88% 30.16 in 0.5 mi SSE 4.6 mph - 0.01 in Fog , Snow Snow
10:53 AM 30.0 °F 24.1 °F 27.0 °F 88% 30.23 in 0.5 mi WSW 5.8 mph - 0.02 in Fog , Snow Snow
11:27 AM 30.0 °F 26.5 °F 27.0 °F 88% 30.15 in 0.8 mi SW 3.5 mph - 0.02 in Snow Light Snow
11:53 AM 30.9 °F - 27.0 °F 85% 30.21 in 0.8 mi Calm Calm - 0.03 in Snow Light Snow
11:58 AM 30.9 °F - 27.0 °F 85% 30.14 in 0.8 mi Calm Calm - 0.00 in Snow Light Snow
12:12 PM 30.9 °F - 28.0 °F 89% 30.13 in 1.0 mi Calm Calm - 0.00 in Snow Light Snow
12:29 PM 30.9 °F - 28.0 °F 89% 30.13 in 0.8 mi Calm Calm - 0.01 in Snow Light Snow
12:43 PM 30.9 °F 27.5 °F 28.0 °F 89% 30.13 in 0.8 mi East 3.5 mph - 0.01 in Snow Light Snow
12:53 PM 32.0 °F 24.8 °F 28.0 °F 85% 30.21 in 0.8 mi East 8.1 mph - 0.02 in Snow Light Snow
1:50 PM 30.2 °F 18.9 °F 26.6 °F 86% 30.13 in 1.0 mi East 16.1 mph - 0.01 in Snow Light Snow
1:53 PM 30.0 °F 18.7 °F 26.1 °F 85% 30.21 in 1.0 mi East 16.1 mph - 0.01 in Snow Light Snow
2:11 PM 30.0 °F 18.7 °F 26.1 °F 85% 30.13 in 1.2 mi East 16.1 mph - 0.00 in Snow Light Snow
2:33 PM 28.9 °F 17.3 °F 26.1 °F 89% 30.14 in 1.5 mi ENE 16.1 mph - 0.00 in Snow Light Snow
2:40 PM 28.9 °F 16.9 °F 25.0 °F 85% 30.14 in 1.2 mi ENE 17.3 mph - 0.00 in Snow Light Snow
2:49 PM 28.4 °F 17.0 °F 24.8 °F 86% 30.15 in 1.0 mi ENE 15.0 mph - 0.00 in Snow Light Snow
2:53 PM 28.9 °F 17.7 °F 25.0 °F 85% 30.25 in 1.2 mi ENE 15.0 mph - 0.00 in Snow Light Snow
3:00 PM 28.0 °F 15.7 °F 25.0 °F 88% 30.16 in 1.0 mi East 17.3 mph - 0.01 in Snow Light Snow
3:21 PM 28.0 °F 15.7 °F 25.0 °F 88% 30.17 in 0.8 mi East 17.3 mph - 0.01 in Snow Light Snow
3:37 PM 28.0 °F 17.0 °F 25.0 °F 88% 30.17 in 1.0 mi East 13.8 mph - 0.01 in Snow Light Snow
3:42 PM 28.0 °F 16.1 °F 25.0 °F 88% 30.18 in 1.2 mi East 16.1 mph - 0.01 in Snow Light Snow
3:53 PM 28.0 °F 16.1 °F 24.1 °F 85% 30.30 in 1.2 mi East 16.1 mph - 0.01 in Snow Light Snow
4:27 PM 27.0 °F 14.7 °F 23.0 °F 85% 30.19 in 2.5 mi East 16.1 mph - 0.00 in Snow Light Snow
4:36 PM 27.0 °F 14.7 °F 23.0 °F 85% 30.19 in 1.5 mi East 16.1 mph - 0.00 in Snow Light Snow
4:46 PM 26.1 °F 13.1 °F 23.0 °F 88% 30.20 in 1.8 mi East 17.3 mph - 0.00 in Snow Light Snow
4:53 PM 26.1 °F 12.7 °F 23.0 °F 88% 30.33 in 1.8 mi East 18.4 mph - 0.00 in Snow Light Snow
5:00 PM 26.1 °F 12.7 °F 23.0 °F 88% 30.21 in 2.5 mi East 18.4 mph - 0.00 in Snow Light Snow
5:03 PM 26.1 °F 12.3 °F 23.0 °F 88% 30.22 in 3.0 mi East 19.6 mph - 0.00 in Snow Light Snow
5:53 PM 26.1 °F 14.0 °F 21.9 °F 84% 30.36 in 10.0 mi East 15.0 mph - 0.00 in   Overcast
6:06 PM 25.0 °F 12.2 °F 21.9 °F 88% 30.25 in 10.0 mi East 16.1 mph - N/A   Overcast
6:53 PM 25.0 °F 14.2 °F 21.9 °F 88% 30.40 in 10.0 mi East 11.5 mph - N/A   Overcast
7:06 PM 25.0 °F 13.1 °F 21.9 °F 88% 30.27 in 10.0 mi East 13.8 mph - N/A   Overcast
7:53 PM 24.1 °F 13.1 °F 21.0 °F 88% 30.41 in 10.0 mi East 11.5 mph - N/A   Overcast
8:48 PM 24.8 °F 11.9 °F 21.2 °F 86% 30.31 in 10.0 mi East 16.1 mph - N/A   Overcast
8:53 PM 24.1 °F 10.6 °F 21.0 °F 88% 30.44 in 10.0 mi East 17.3 mph - N/A   Overcast
9:07 PM 24.1 °F 11.5 °F 21.0 °F 88% 30.32 in 10.0 mi East 15.0 mph - N/A   Overcast
9:53 PM 23.0 °F 12.4 °F 19.9 °F 88% 30.48 in 10.0 mi East 10.4 mph - N/A   Overcast
10:28 PM 24.1 °F 12.5 °F 19.9 °F 84% 30.35 in 10.0 mi East 12.7 mph - N/A   Overcast
10:35 PM 24.1 °F 13.1 °F 19.9 °F 84% 30.36 in 10.0 mi East 11.5 mph - N/A   Overcast
10:53 PM 24.1 °F 14.4 °F 19.9 °F 84% 30.50 in 10.0 mi ENE 9.2 mph - N/A   Overcast
11:01 PM 24.1 °F 14.4 °F 19.9 °F 84% 30.37 in 10.0 mi East 9.2 mph - N/A   Overcast
11:53 PM 24.1 °F 19.7 °F 19.9 °F 84% 30.51 in 10.0 mi East 3.5 mph - N/A   Overcast